ONEWEB-0335 (49201 NORAD) Tracking and Keplerian Element Data

This shows tracking and keplerian element data for the satellite.

Feedback or suggestion? Click here.




ElementValue
Catalog49201
NameONEWEB-0335
Epoch Orbit363
Epoch Day287.91667824
Epoch Year2021
RAAN317.5848
Inclination87.2118
Eccentricity0.0021025
Argument of Perigee180.9042
Mean Anonmoly326.9051
Mean Motion14.90364871
Decay Rate-0.01287981
L11 49201U 21083R 21287.91667824 -.01287981 00000-0 -14302+0 0 9990
L22 49201 87.2118 317.5848 0021025 180.9042 326.9051 14.90364871 3636

Live tracking and technical data element details for ONEWEB-0335 (NORAD 49201). ONEWEB-0335 can be tracked NOW for your location showing map with azimuth and elevation plus other details from your city location.

Track the satellite on the map from your city or location and see movement details for azimuth, elevation, latitude, longitude, range, height, and movement on the map or in text.







IsCatalogInMostPopularTable: catalog: 49201, numindb: 8
Update: records affected: 1



GetName: 49201 ONEWEB-0335

Hit Count: updated at: Tue, 19 Oct 2021 08:02:33 GMT